THOR ABLESTAR DEB, 141

Orbit data source: Space-Track

THOR ABLESTAR DEB, 141 is space debris in LEO originally from a launch on Thu, 29 Jun 1961 UTC launched from the Air Force Eastern Test Range (AFETR). Debris objects in space refer to the collection of defunct objects orbiting the Earth. Examples of debris include non-operational satellites, rocket bodies, and fragments generated from explosions, collisions, or faulty payload assembly.

Loading next visibility...
Identifier
141, 1961-015AB
Orbit
LEO
Last TLE update
5 hours ago
Origin
Manufacturer
Unknown
Mission
Spacecraft
Bus & Motor
Unknown
Mass
Unknown
Launch date (UTC)
1961-06-29 (64 years ago)
Launch vehicle
Unknown
Launch site
Air Force Eastern Test Range (AFETR)
Object type
Payload
Rocket body
Debris
Shape & HBR
Unknown
Radar Cross Section
Medium (>0.1 m² and <1 m²)

Expand to show TLE details & history

TLE from 5 hours ago
0 THOR ABLESTAR DEB
1   141U 61015AB  25192.22775767  .00000183  00000-0  21329-3 0  9993
2   141  66.5877 160.9892 0063127 269.9148  89.4694 13.88682626224839
Epoch: 2025-07-11T05:27Z
TLE epoch observation values (Epoch: 2025-07-11T05:27:58.262Z)
Latitude
-0.00004°
Longitude
149.61372°
Altitude
935.173 km
Speed
7.385 km/s
True Right ascension
10h 43m 57s
True Declination
0° 00' 00"
Sunlit
Object was in daylight at epoch
Visualization orbit readout
Latitude
16.30511°
Longitude
156.31341°
Altitude
948.695 km
Speed
7.372 km/s
Apparent Right ascension
11h 07m 12s
Apparent Declination
-9° 38' 05"
Sunlit
Object is in daylight
Visualization observer readout
Local Sidereal Time
23:02:08
Azimuth
357.517° N
Elevation
-59.698°
Doppler factor
1
Orbital elements
Apogee altitude
977.815 km
Perigee altitude
885.526 km
Semi-major axis
7,309.808 km
Eccentricity
0.00631
Inclination
66.5877°
RAAN
160.9892°
Arg. of periapsis
269.9148°
True anomaly
Unknown
Mean anomaly
89.4694°
Eccentric anomaly
Unknown
Mean motion
3.47284 °/min
Orbital period
103.66 mins
BSTAR
0.00021329
Loading maneuver chart data...
Loading SW <> Apogee altitude chart data...

THOR ABLESTAR DEB Visibility forecast

Observer location: undefined°, undefined°

Span
Click to sort rows by Start time (UTC) header in descending order
Start Az.
Max El. time (UTC)
Max El. Az.
Max El.
End time (UTC)
End Az.
11 mins2025-07-11 22:51:12.584Z179.34° S2025-07-11 22:57:12.584Z101.475° ESE33.929°2025-07-11 23:02:12.584Z44.173° NE
10 mins2025-07-12 00:39:12.584Z251.989° W2025-07-12 00:43:12.584Z302.824° NW29.64°2025-07-12 00:49:12.584Z14.068° NNE
10 mins2025-07-12 07:57:12.584Z348.22° N2025-07-12 08:01:12.584Z41.861° NE34.951°2025-07-12 08:07:12.584Z124.395° SE
9 mins2025-07-12 09:44:12.584Z302.305° NW2025-07-12 09:48:12.584Z249.442° W27.571°2025-07-12 09:53:12.584Z192.919° SSW
|